Location: Newark
(45.5000°N, 11.4167°E)
Time: 13:59:10
(UTC+00:00)

Explorer 11/Cluster Stage 4 - Pass Details

Date: 20 August 2019
Orbit: 467 x 1260 km, 28.8° (Epoch: 20 September)

Event Time Altitude Azimuth Distance (km) Brightness Sun altitude
Rises 10:09:40 0° 209° (SSW) 4,192 10.6 53.9°
Reaches altitude 10° 10:14:32 10° 186° (S) 3,212 10.3 54.3°
Maximum altitude 10:18:00 13° 160° (SSE) 2,922 10.4 54.6°
Drops below altitude 10° 10:21:23 10° 134° (SE) 3,103 10.3 54.9°
Sets 10:25:54 0° 110° (ESE) 3,935 10.5 55.2°
